Flag for Luxembourg Weather past 2 weeks in Luxembourg, Luxembourg

Now
48 °F

Broken clouds.


Feels Like: 40 °F
Forecast: 36 / 46 °F
Wind: 28 mph from West

Location: Luxembourg Airport

Current Time: Mar 31, 2015 at 12:24:46 PM

Latest Report: Mar 31, 2015 at 11:50 AM


Visibility: N/A

Pressure: 29.65 "Hg

Humidity: 87%

Dew point: 45 °F

Location of LuxembourgLocation

Historic Weather in Luxembourg — Graph

°F

Luxembourg temperature yesterday

Maximum temperature yesterday: 52 °F (at 5:20 PM)
Minimum temperature yesterday: 41 °F (at 5:20 AM)
Average temperature yesterday: 45 °F

Past Weeks' High & Low Weather Summary

 TemperatureHumidityPressure
High64 °F (Mar 18, 2:20 PM)100% (Mar 20, 4:50 AM)30.30 "Hg (Mar 20, 4:50 AM)
Low28 °F (Mar 23, 6:50 AM)30% (Mar 18, 4:50 PM)29.50 "Hg (Mar 29, 7:50 PM)
Average44 °F78%29.98 "Hg
* Reported Mar 16 9:20 AM — Mar 31 10:50 AM, Luxembourg, Weather by CustomWeather, © 2015

Note: Actual official high and low records may vary slightly from our data, if they occured in-between our weather recording intervals... More about our weather records

Advertising

Luxembourg weather history for previous 24 hours

 ConditionsComfort  
Time TempWeatherWind HumidityBarometerVisibility
10:50 AM
Tue, Mar 31
48 °FBroken clouds.28 mph87%29.59 "HgN/A
10:20 AM48 °FRain showers. Fog.18 mph94%29.59 "Hg2 mi
9:50 AM48 °FSprinkles. Fog.29 mph94%29.59 "Hg2 mi
9:20 AM50 °FPartly sunny.32 mph88%29.56 "HgN/A
8:50 AM50 °FLight rain. Partly sunny.35 mph88%29.56 "HgN/A
8:20 AM50 °FLight rain. Fog.31 mph88%29.56 "Hg1 mi
7:50 AM50 °FLight rain. Fog.28 mph94%29.56 "Hg1 mi
7:20 AM50 °FLight rain. Fog.29 mph94%29.53 "Hg2 mi
6:50 AM52 °FPassing clouds.29 mph82%29.50 "HgN/A
6:20 AM52 °FPassing clouds.28 mph82%29.50 "HgN/A
5:50 AM52 °FPassing clouds.26 mph88%29.53 "HgN/A
5:20 AM52 °FPassing clouds.30 mph88%29.56 "HgN/A
4:50 AM52 °FLight rain. Passing clouds.29 mph88%29.56 "HgN/A
4:20 AM50 °FCool.24 mph94%29.59 "Hg6 mi
3:50 AM50 °FCool.25 mph94%29.59 "HgN/A
3:20 AM48 °FCool.20 mph100%29.62 "Hg5 mi
2:50 AM46 °FCool.16 mph100%29.65 "Hg2 mi
2:20 AM45 °FQuite cool.15 mph100%29.68 "Hg2 mi
1:50 AM43 °FQuite cool.15 mph100%29.71 "HgN/A
1:20 AM43 °FQuite cool.15 mph93%29.74 "Hg5 mi
12:50 AM45 °FPassing clouds.16 mph81%29.77 "HgN/A
12:20 AM45 °FPassing clouds.13 mph76%29.80 "HgN/A
11:50 PM
Mon, Mar 30
43 °FPassing clouds.9 mph76%29.80 "HgN/A
10:50 PM43 °FPartly cloudy.8 mph71%29.86 "HgN/A
10:20 PM43 °FPartly cloudy.8 mph71%29.86 "HgN/A
9:50 PM43 °FPartly cloudy.7 mph71%29.89 "HgN/A
9:20 PM45 °FPassing clouds.7 mph66%29.89 "HgN/A
8:50 PM45 °FSunny.8 mph61%29.89 "Hg10 mi
8:20 PM45 °FSunny.10 mph61%29.89 "Hg10 mi
7:50 PM45 °FPassing clouds.12 mph57%29.92 "HgN/A
7:20 PM46 °FPassing clouds.15 mph53%29.89 "HgN/A
6:50 PM46 °FSunny.15 mph50%29.89 "Hg10 mi
6:20 PM50 °FPassing clouds.14 mph43%29.86 "HgN/A
5:50 PM48 °FPassing clouds.16 mph46%29.86 "HgN/A
5:20 PM52 °FPassing clouds.15 mph44%29.86 "HgN/A
4:50 PM50 °FPassing clouds.21 mph40%29.83 "HgN/A
4:20 PM48 °FPassing clouds.16 mph50%29.86 "HgN/A
3:50 PM48 °FPassing clouds.20 mph46%29.83 "HgN/A
3:20 PM48 °FScattered clouds.18 mph50%29.83 "HgN/A
2:50 PM48 °FScattered clouds.20 mph50%29.80 "HgN/A
2:20 PM48 °FScattered clouds.20 mph50%29.80 "HgN/A
1:50 PM46 °FScattered clouds.17 mph57%29.77 "HgN/A
1:20 PM46 °FScattered clouds.16 mph62%29.77 "HgN/A
12:50 PM45 °FScattered clouds.15 mph66%29.77 "HgN/A
12:20 PM43 °FScattered clouds.17 mph76%29.74 "HgN/A
Weather by CustomWeather, © 2015

See weather overviewHow to use our weather pages